Home   Weather   Melbourne   Past weeks
Flag for USA

Past Weather in Melbourne, Tennessee, USA — Yesterday and Last 2 Weeks

Now
61 °F

High level clouds.


Feels Like: 61 °F
Forecast: 67 / 38 °F
Wind: 6 mph from Northeast

Location: McGhee Tyson Airport

Current Time: Oct 18, 2019 at 7:50:45 pm

Latest Report: Oct 18, 2019 at 6:53 pm


Visibility: 10 mi

Pressure: 29.98 "Hg

Humidity: 42%

Dew Point: 38 °F

Location of MelbourneLocation

Past Weather in Melbourne — Graph

°F

Melbourne Temperature Yesterday

Maximum temperature yesterday: 60 °F (at 3:53 pm)
Minimum temperature yesterday: 40 °F (at 6:53 am)
Average temperature yesterday: 50 °F

High & Low Weather Summary for the Past Weeks

 TemperatureHumidityPressure
High95 °F (Oct 3, 5:53 pm)100% (Oct 9, 6:59 am)30.22 "Hg (Oct 9, 6:59 am)
Low39 °F (Oct 18, 4:53 am)21% (Oct 14, 3:53 pm)29.74 "Hg (Oct 16, 6:53 am)
Average64 °F67%30.04 "Hg
* Reported Oct 3 5:53 pm — Oct 18 5:53 pm, Melbourne. Weather by CustomWeather, © 2019

Note: Actual official high and low records may vary slightly from our data, if they occured in-between our weather recording intervals... More about our weather records

Advertising

Melbourne Weather History for the Previous 24 Hours

Scroll right to see more
 ConditionsComfort  
Time TempWeatherWind HumidityBarometerVisibility
5:53 pm
Fri, Oct 18
65 °FHigh level clouds.8 mph34%29.97 "Hg10 mi
4:53 pm67 °FHigh level clouds.6 mph29%29.98 "Hg10 mi
3:53 pm67 °FHigh level clouds.10 mph32%29.97 "Hg10 mi
2:53 pm68 °FPartly sunny.6 mph27%29.98 "Hg10 mi
1:53 pm65 °FScattered clouds.7 mph33%30.00 "Hg10 mi
12:53 pm63 °FScattered clouds.8 mph37%30.04 "Hg10 mi
11:53 am59 °FPassing clouds.7 mph46%30.07 "Hg10 mi
10:53 am55 °FPassing clouds.7 mph59%30.07 "Hg10 mi
9:53 am50 °FPassing clouds.7 mph77%30.06 "Hg10 mi
8:53 am45 °FScattered clouds.No wind82%30.04 "Hg10 mi
7:53 am40 °FScattered clouds.No wind89%30.04 "Hg10 mi
6:53 am40 °FClear.6 mph89%30.03 "Hg10 mi
5:53 am41 °FClear.No wind89%30.02 "Hg10 mi
4:53 am39 °FClear.3 mph93%30.01 "Hg10 mi
3:53 am40 °FClear.3 mph89%30.01 "Hg10 mi
2:53 am44 °FClear.No wind82%30.01 "Hg10 mi
1:53 am44 °FClear.No wind79%30.00 "Hg10 mi
12:53 am44 °FClear.5 mph82%29.99 "Hg10 mi
11:53 pm
Thu, Oct 17
45 °FClear.5 mph80%29.99 "Hg10 mi
10:53 pm46 °FClear.3 mph77%30.00 "Hg10 mi
8:53 pm52 °FClear.No wind59%29.99 "Hg10 mi
7:53 pm56 °FClear.5 mph47%29.98 "Hg10 mi
Weather by CustomWeather, © 2019

See weather overview